TimeCDT,TemperatureF,Dew PointF,Humidity,Sea Level PressureIn,VisibilityMPH,Wind Direction,Wind SpeedMPH,Gust SpeedMPH,PrecipitationIn,Events,Conditions,WindDirDegrees,DateUTC
12:15 AM,56.1,45.1,67,30.03,10.0,South,5.8,-,N/A,,Light Drizzle,190,2013-04-23 05:15:00
12:35 AM,57.2,45.1,64,30.04,10.0,SW,9.2,-,N/A,,Mostly Cloudy,220,2013-04-23 05:35:00
12:55 AM,57.0,46.8,69,30.04,10.0,SW,10.4,-,N/A,Rain,Light Rain,220,2013-04-23 05:55:00
1:15 AM,54.9,48.9,80,30.03,10.0,SW,5.8,9.2,N/A,Rain,Light Rain,220,2013-04-23 06:15:00
1:35 AM,53.8,49.6,86,30.00,10.0,SSE,4.6,-,0.01,,Light Drizzle,150,2013-04-23 06:35:00
1:55 AM,52.9,49.5,88,30.00,10.0,SSE,3.5,-,0.01,,Overcast,150,2013-04-23 06:55:00
2:15 AM,53.6,49.1,85,29.98,10.0,SE,4.6,-,N/A,,Overcast,140,2013-04-23 07:15:00
2:35 AM,53.2,49.1,86,29.97,10.0,Calm,Calm,-,N/A,,Overcast,0,2013-04-23 07:35:00
2:55 AM,53.6,48.9,84,29.98,10.0,South,4.6,-,N/A,,Overcast,170,2013-04-23 07:55:00
3:15 AM,54.0,48.6,82,29.98,10.0,South,4.6,-,N/A,,Overcast,170,2013-04-23 08:15:00
3:35 AM,54.0,48.4,81,29.97,10.0,South,4.6,-,N/A,,Overcast,180,2013-04-23 08:35:00
3:55 AM,53.6,48.4,82,29.95,10.0,SSE,4.6,-,N/A,,Overcast,160,2013-04-23 08:55:00
4:15 AM,53.4,48.2,82,29.94,10.0,Calm,Calm,-,N/A,,Mostly Cloudy,0,2013-04-23 09:15:00
4:35 AM,52.3,47.7,84,29.94,10.0,South,3.5,-,N/A,,Scattered Clouds,170,2013-04-23 09:35:00
4:55 AM,53.6,48.2,82,29.93,10.0,Calm,Calm,-,N/A,,Clear,0,2013-04-23 09:55:00
5:15 AM,51.8,46.9,83,29.93,10.0,Calm,Calm,-,N/A,,Clear,0,2013-04-23 10:15:00
5:35 AM,51.1,47.1,86,29.94,10.0,Calm,Calm,-,N/A,,Scattered Clouds,0,2013-04-23 10:35:00
5:55 AM,52.2,46.4,81,29.95,10.0,Calm,Calm,-,N/A,,Scattered Clouds,0,2013-04-23 10:55:00
6:15 AM,50.9,48.2,90,29.95,10.0,Calm,Calm,-,N/A,,Clear,0,2013-04-23 11:15:00
6:35 AM,50.4,47.8,91,29.94,10.0,SE,3.5,-,N/A,,Clear,130,2013-04-23 11:35:00
6:55 AM,51.1,47.7,88,29.93,10.0,NNW,3.5,-,N/A,,Clear,330,2013-04-23 11:55:00
7:15 AM,51.1,48.2,90,29.94,10.0,NNW,3.5,-,N/A,,Clear,330,2013-04-23 12:15:00
7:35 AM,51.4,48.2,89,29.94,10.0,Calm,Calm,-,N/A,,Scattered Clouds,0,2013-04-23 12:35:00
7:55 AM,51.8,49.1,90,29.95,10.0,Calm,Calm,-,N/A,,Scattered Clouds,0,2013-04-23 12:55:00
8:15 AM,52.7,49.1,88,29.95,10.0,WNW,4.6,-,N/A,,Scattered Clouds,300,2013-04-23 13:15:00
8:35 AM,52.2,48.6,88,29.97,10.0,WNW,8.1,-,N/A,,Mostly Cloudy,300,2013-04-23 13:35:00
8:55 AM,51.4,48.7,90,29.97,7.0,NW,8.1,-,N/A,Rain,Rain,310,2013-04-23 13:55:00
9:15 AM,49.1,47.5,94,29.98,5.0,NW,11.5,16.1,N/A,,Drizzle,310,2013-04-23 14:15:00
9:35 AM,47.1,45.5,94,29.97,7.0,NW,9.2,-,N/A,,Light Drizzle,320,2013-04-23 14:35:00
9:55 AM,46.8,44.6,92,29.97,10.0,WNW,8.1,-,N/A,,Drizzle,300,2013-04-23 14:55:00
10:15 AM,46.2,43.7,91,29.97,7.0,NW,9.2,-,N/A,Rain,Light Rain,310,2013-04-23 15:15:00
10:35 AM,45.5,43.5,93,29.98,5.0,NW,9.2,-,0.01,Rain,Light Rain,310,2013-04-23 15:35:00
10:55 AM,45.3,43.7,94,29.98,5.0,NW,10.4,-,0.01,Rain,Light Rain,310,2013-04-23 15:55:00
11:15 AM,44.2,42.1,92,29.98,10.0,WNW,5.8,-,N/A,Rain,Rain,300,2013-04-23 16:15:00
11:35 AM,43.9,41.9,93,29.97,7.0,NNW,6.9,-,N/A,Rain,Light Rain,330,2013-04-23 16:35:00
11:55 AM,43.7,41.7,93,29.98,7.0,NW,6.9,-,0.01,Rain,Rain,310,2013-04-23 16:55:00
12:15 PM,43.0,41.7,95,29.99,7.0,WNW,9.2,-,0.01,Rain,Rain,290,2013-04-23 17:15:00
12:35 PM,42.3,41.0,95,30.00,5.0,NW,12.7,19.6,0.03,Rain,Light Rain,310,2013-04-23 17:35:00
12:55 PM,41.2,39.7,95,30.00,4.0,NW,13.8,18.4,0.08,Rain,Rain,310,2013-04-23 17:55:00
1:15 PM,41.0,39.2,93,29.99,4.0,NW,10.4,17.3,0.02,Rain,Rain,320,2013-04-23 18:15:00
1:35 PM,41.0,39.6,95,29.95,5.0,North,10.4,-,0.04,Rain,Rain,350,2013-04-23 18:35:00
1:55 PM,41.5,39.6,93,29.94,7.0,North,10.4,-,0.06,Rain,Light Rain,360,2013-04-23 18:55:00
2:35 PM,-9999,-9999,N/A,29.93,10.0,North,8.1,-,0.01,Rain,Light Rain,350,2013-04-23 19:35:00
2:55 PM,-9999,-9999,N/A,29.93,10.0,North,8.1,-,0.01,Rain,Light Rain,350,2013-04-23 19:55:00
3:35 PM,41.0,39.4,94,29.93,5.0,NNW,9.2,-,0.02,Rain,Light Rain,340,2013-04-23 20:35:00
3:55 PM,40.6,39.4,95,29.94,4.0,NW,6.9,-,0.05,Rain,Rain,320,2013-04-23 20:55:00
4:15 PM,40.5,39.4,96,29.95,3.0,NNW,8.1,-,0.02,Rain,Rain,330,2013-04-23 21:15:00
4:35 PM,40.5,39.2,95,29.95,4.0,NNW,9.2,17.3,0.05,Rain,Rain,330,2013-04-23 21:35:00
4:55 PM,40.5,39.4,96,29.94,4.0,NNW,9.2,-,0.08,Rain,Rain,340,2013-04-23 21:55:00
5:15 PM,40.3,38.7,94,29.96,5.0,NNW,10.4,-,0.01,Rain,Light Rain,340,2013-04-23 22:15:00
5:35 PM,40.1,38.5,94,29.95,3.0,NNW,11.5,18.4,0.03,Rain,Light Rain,330,2013-04-23 22:35:00
5:55 PM,39.7,38.3,95,29.97,4.0,NNW,11.5,-,0.04,Rain,Rain,340,2013-04-23 22:55:00
6:15 PM,39.2,37.9,95,29.95,4.0,NNW,13.8,-,0.01,Rain,Light Rain,340,2013-04-23 23:15:00
6:35 PM,39.2,37.6,94,29.95,7.0,NNW,13.8,17.3,0.02,Rain,Light Rain,340,2013-04-23 23:35:00
6:55 PM,38.8,37.0,93,29.95,10.0,North,11.5,17.3,0.03,Rain,Light Rain,350,2013-04-23 23:55:00
7:15 PM,38.5,36.5,93,29.95,10.0,North,12.7,-,N/A,Rain,Light Rain,350,2013-04-24 00:15:00
7:35 PM,38.3,36.5,93,29.96,10.0,North,8.1,-,0.01,Rain,Light Rain,350,2013-04-24 00:35:00
7:55 PM,38.3,36.5,93,29.95,10.0,North,6.9,-,0.02,Rain,Light Rain,350,2013-04-24 00:55:00
8:15 PM,38.3,36.5,93,29.95,10.0,North,8.1,-,0.01,Rain,Light Rain,350,2013-04-24 01:15:00
8:35 PM,38.3,36.5,93,29.96,10.0,North,10.4,-,0.01,Rain,Rain,350,2013-04-24 01:35:00
8:55 PM,38.3,36.1,92,29.97,10.0,NNW,10.4,-,0.01,Rain,Light Rain,340,2013-04-24 01:55:00
9:15 PM,37.9,36.1,93,29.98,10.0,North,8.1,-,N/A,Rain,Rain,350,2013-04-24 02:15:00
9:35 PM,37.9,36.1,93,29.98,10.0,NNW,8.1,-,0.02,Rain,Rain,330,2013-04-24 02:35:00
9:55 PM,37.8,36.1,94,29.98,7.0,NNW,8.1,-,0.05,Rain,Rain,340,2013-04-24 02:55:00
10:15 PM,38.3,36.1,92,29.98,10.0,North,9.2,-,0.01,Rain,Light Rain,350,2013-04-24 03:15:00
10:35 PM,38.5,36.5,93,29.99,10.0,NNW,5.8,-,0.01,Rain,Light Rain,340,2013-04-24 03:35:00
10:55 PM,38.5,36.7,93,29.99,10.0,North,4.6,-,0.02,,Light Drizzle,350,2013-04-24 03:55:00
11:15 PM,38.5,36.9,94,29.98,10.0,NNW,4.6,-,N/A,,Light Drizzle,330,2013-04-24 04:15:00
11:35 PM,38.5,37.2,95,29.99,10.0,NNW,4.6,-,N/A,,Light Drizzle,330,2013-04-24 04:35:00
11:55 PM,38.8,37.4,95,30.00,10.0,NNW,4.6,-,N/A,,Overcast,330,2013-04-24 04:55:00